Regional Weather Roundup
Issued by NWS

Home | Current Version | Previous Version | Graphics & Text | Print | Product List | Glossary On
Versions: 1 2 3 4 5 6 7 8 9 10 11 12 13 14 15 16 17 18 19 20 21 22 23 24 25 26 27 28 29 30 31 32 33 34 35 36 37 38 39 40 41 42 43 44 45 46 47 48 49 50
000
ASUS43 KFSD 030402
RWRSD

WEATHER ROUNDUP FOR SOUTH DAKOTA
NATIONAL WEATHER SERVICE SIOUX FALLS SD
1100 PM CDT SAT MAY 02 2015

NOTE: "FAIR" INDICATES FEW OR NO CLOUDS BELOW 12,000 FEET WITH NO
SIGNIFICANT WEATHER AND/OR OBSTRUCTIONS TO VISIBILITY.


SDZ001>005-009-010-012>017-030500-
NORTHWEST AND NORTH CENTRAL SOUTH DAKOTA

CITY           SKY/WX    TMP DP  RH WIND       PRES   REMARKS
BUFFALO          N/A     59  29  31 NE13      29.69R
FAITH            N/A     65  25  22 NE3       29.72R
MOBRIDGE       PTCLDY    60  30  32 N12       29.64S
$$

SDZ012>016-024>037-041>051-057-063-072>074-030500-
SOUTHWEST AND SOUTH CENTRAL SOUTH DAKOTA

CITY           SKY/WX    TMP DP  RH WIND       PRES   REMARKS
RAPID CTY ARPT CLEAR     54  30  40 N8        29.75R
PIERRE         MOCLDY    65  42  43 N12       29.67R
CUSTER         CLEAR     49  30  48 NW5       29.87R
ELLSWORTH AFB  CLEAR     65  30  26 N8        29.75R
PHILIP         MOCLDY    61  30  31 N7        29.70R
PINE RIDGE     MOCLDY    54  39  57 E7        29.76R
WINNER         FAIR      69  37  30 S7        29.66S
$$

SDZ004>011-016>023-039-040-030500-
NORTHEAST SOUTH DAKOTA

CITY           SKY/WX    TMP DP  RH WIND       PRES   REMARKS
ABERDEEN       MOCLDY    64  51  62 SE5       29.63F
WATERTOWN      CLEAR     67  48  50 S12       29.67F
BROOKINGS      CLEAR     66  52  59 S15       29.72S
SISSETON         N/A     70  46  42 S9        29.66R
$$

SDZ017-020-022-023-036>040-048>070-030500-
SOUTHEAST SOUTH DAKOTA

CITY           SKY/WX    TMP DP  RH WIND       PRES   REMARKS
SIOUX FALLS    PTCLDY    67  54  63 SE14      29.72S
HURON          MOCLDY    69  48  47 S15       29.64R
MITCHELL       PTCLDY    70  55  59 S16       29.67S
YANKTON        CLOUDY    66  54  63 E9        29.71R
$$

ABBREVIATIONS USED IN REMARKS
   TC - TEMPERATURE IN CELSIUS
  WCI - WIND CHILL INDEX
   HX - HEAT INDEX
  VSB - VISIBILITY



USA.gov is the U.S. government's official web portal to all federal, state and local government web resources and services.